{"data":{"norad_id":68039,"intl_designator":"2026-040AA","name":"STARLINK-36373","alt_names":[],"object_type":"PAYLOAD","status":"ACTIVE","operator":null,"country":"US","launch_date":"2026-03-01","launch_site_code":"AFWTR","launch_vehicle":null,"mission":null,"orbit_class":"UNKNOWN","rcs_meters":null,"size_class":null,"mass_kg":null,"dimensions":null,"purposes":["comms"],"wikipedia_slug":null,"has_3d_model":false,"image_url":null,"decayed_at":null,"tle_current":{"epoch":"2026-05-24T19:53:49.996032Z","epoch_age_seconds":85873,"freshness":"FRESH","line1":"1 68039U 26040AA  26144.82905088  .00023593  00000+0  73063-3 0  9998","line2":"2 68039  97.2839  93.8763 0001731  94.2032 265.9408 15.33452764 13136","mean_motion":15.33452764,"eccentricity":0.0001731,"inclination_deg":97.2839,"raan_deg":93.8763,"arg_perigee_deg":94.2032,"mean_anomaly_deg":265.9408,"bstar":0.00073063,"rev_number":1313,"period_min":93.905729201842,"perigee_km":464.33543733446,"apogee_km":466.70471141361,"semimajor_km":6843.657074374,"source":"CELESTRAK","updated_at":"2026-05-25T13:38:21.809673Z"}}}